Simultaneous Nadir Overpasses (SNOs) Predictions

Prediction of SNOs over PacNW region [( 10.00, 139.50) to ( 22.70, 165.60)] between AQUA and NPP Satellites:

Table of predicted SNOs over PacNW region for the next 30.0 days since TLE Epoch: 6/2/2017
Index Date (AQUA) Time (AQUA) AQUA Lat,Lon Date (NPP) Time (NPP) NPP Lat,Lon Distance(km) Time Diff (sec)
1 06/09/2017 15:09:49 22.61, 159.82 06/09/2017 15:10:50 23.18, 157.31 265.14 61
2 06/12/2017 03:31:39 22.68, 147.50 06/12/2017 03:28:09 26.40, 144.88 491.44 210
3 06/17/2017 15:59:11 22.62, 147.47 06/17/2017 16:01:33 23.23, 144.64 297.93 142
4 06/25/2017 15:09:40 22.61, 159.85 06/25/2017 15:10:49 23.15, 157.32 266.06 69
5 06/28/2017 03:31:29 22.68, 147.53 06/28/2017 03:27:59 25.92, 145.02 441.22 210




NCC Satellite Simultaneous Nadir Overpasses (SNOs) Prediction Service
